Regional Weather Roundup
Issued by NWS

Home | Current Version | Previous Version | Text Only | Print | Product List | Glossary On
Versions: 1 2 3 4 5 6 7 8 9 10 11 12 13 14 15 16 17 18 19 20 21 22 23 24 25 26 27 28 29 30 31 32 33 34 35 36 37 38 39 40 41 42 43 44 45 46 47 48 49 50
476
ASUS44 KJAN 211310
RWRMS

MISSISSIPPI HOURLY WEATHER ROUNDUP
NATIONAL WEATHER SERVICE JACKSON MS
800 AM CDT SAT APR 21 2018

NOTE: "FAIR: INDICATES FEW OR NO CLOUDS BELOW 12,000 FEET WITH NO
SIGNIFICANT WEATHER AND/OR OBSTRUCTIONS TO VISIBILITY.

MSZ001>002-007>008-010>013-018>021-025>028-034>036-211400-
NORTHWEST MISSISSIPPI

CITY           SKY/WX    TMP DP  RH WIND       PRES   REMARKS
BATESVILLE       N/A    N/A N/A N/A MISG        N/A
CLARKSDALE     SUNNY     55  43  62 E8        30.22R
CLEVELAND      FAIR      55  41  59 E9        30.20R
GREENWOOD      FAIR      55  41  59 E6        30.20S
GREENVILLE     FAIR      55  42  61 E8        30.18R
OLIVE BRANCH   PTSUNNY   50  36  57 E7        30.24S
OXFORD         FAIR      54  36  50 VRB6      30.25F
TUNICA           N/A     52  37  58 E9        30.24S
WINONA         FAIR      52  41  67 E3        30.22S
$$

MSZ003>006-009-014>017-022>024-029>033-037>039-211400-
NORTHEAST MISSISSIPPI

CITY           SKY/WX    TMP DP  RH WIND       PRES   REMARKS
ABERDEEN         N/A     52  52 100 VRB5      30.27R
COLUMBUS AFB   FAIR      53  45  74 SE6       30.24S
CORINTH        FAIR      48  41  76 CALM      30.28R
GOLDN TRIANGLE FAIR      55  43  62 E9        30.24S
STARKVILLE     FAIR      52  41  66 SE5       30.25S
TUPELO         FAIR      50  41  71 N5        30.26R
$$

MSZ040-058-211400-
CENTRAL MISSISSIPPI

CITY           SKY/WX    TMP DP  RH WIND       PRES   REMARKS
JACKSON INTL   FAIR      56  45  66 E9        30.16F
JACKSON HAWKNS FAIR      56  47  71 E6        30.17F
MADISON        FAIR      54  45  71 E6        30.17F
MERIDIAN KEY   FAIR      58  45  62 SE12      30.22R
MERIDIAN NAS   NOT AVBL
RAYMOND          N/A     55  48  76 E13       30.16S
VICKSBURG VKS  SUNNY     55  46  71 SE8       30.16S
$$

MSZ059>079-211400-
SOUTH MISSISSIPPI

CITY           SKY/WX    TMP DP  RH WIND       PRES   REMARKS
COLUMBIA       FAIR      57  48  72 E6        30.21R
HATTIESBURG    FAIR      52  49  89 CALM      30.19R
LAUREL         FAIR      55  47  73 E8        30.20S
MCCOMB         FAIR      54  47  77 SE5       30.16R
NATCHEZ        FAIR      56  48  74 SE7       30.15R
PINE BELT      FAIR      56  48  74 E7        30.19R
$$

MSZ080>082-211400-
COASTAL MISSISSIPPI

CITY           SKY/WX    TMP DP  RH WIND       PRES   REMARKS
BAY ST LOUIS   SUNNY     57  52  82 E3        30.15R
BILOXI         FAIR      62  55  77 E10       30.13F
PASCAGOULA     FAIR      60  54  80 NE5       30.15S
GULFPORT       FAIR      60  54  80 E7        30.14R
$$

LAZ007>009-015>016-023>026-211400-
NORTHEAST LOUISIANA

CITY           SKY/WX    TMP DP  RH WIND       PRES   REMARKS
BASTROP        FAIR      55  49  80 E5        30.17R
TALLULAH/VBURG FAIR      56  47  71 SE8       30.16R
VIDALIA        FAIR      56  49  76 SE3       30.14R
$$




USA.gov is the U.S. government's official web portal to all federal, state and local government web resources and services.